Location: Rancho Del Sol Observatory
(38.7214°N, 120.6350°W)
Time: 19:03:09
(UTC-08:00)

Vanguard 2 - All Passes

Search period start: 26 January 2020 00:00
Search period end: 05 February 2020 00:00
Orbit: 553 x 2938 km, 32.9° (Epoch: 26 January)

Date Brightness Start Highest point End Pass type
(mag) Time Alt. Az. Time Alt. Az. Time Alt. Az.
26 Jan - 07:38:50 10° S 07:49:56 22° SSE 07:58:54 10° ESE daylight
26 Jan - 09:46:41 10° SW 10:00:36 43° SSE 10:09:43 10° E daylight
26 Jan - 11:58:31 10° WSW 12:10:40 59° S 12:17:51 10° E daylight
26 Jan - 14:11:03 10° W 14:19:36 47° SSW 14:24:55 10° ESE daylight
26 Jan - 16:23:39 10° WSW 16:27:00 15° SW 16:29:48 10° S daylight
27 Jan - 07:54:42 10° SSW 08:07:49 28° SSE 08:17:55 10° E daylight
27 Jan - 10:04:08 10° SW 10:18:33 50° SSE 10:27:44 10° E daylight
27 Jan - 12:16:34 10° WSW 12:28:35 61° S 12:35:39 10° ESE daylight
27 Jan - 14:29:13 10° W 14:37:18 40° SSW 14:42:27 10° SE daylight
28 Jan - 06:07:31 10° SSE 06:14:56 14° SE 06:21:46 10° ESE visible
28 Jan - 08:11:13 10° SSW 08:25:43 36° SSE 08:36:29 10° E daylight
28 Jan - 10:21:49 10° WSW 10:36:31 57° SSE 10:45:42 10° E daylight
28 Jan - 12:34:41 10° W 12:46:29 61° S 12:53:25 10° ESE daylight
28 Jan - 14:47:29 10° W 14:54:54 32° SSW 14:59:49 10° SE daylight
29 Jan - 06:21:36 10° S 06:32:42 20° SE 06:42:28 10° ESE visible
29 Jan - 08:28:10 10° SW 08:43:38 43° SSE 08:54:45 10° E daylight
29 Jan - 10:39:42 10° WSW 10:54:29 62° S 11:03:35 10° E daylight
29 Jan - 12:52:51 10° W 13:04:20 57° SSW 13:11:07 10° ESE daylight
29 Jan - 15:05:55 10° W 15:12:23 25° SW 15:16:56 10° SSE daylight
30 Jan - 06:37:08 10° SSW 06:50:27 27° SE 07:01:51 10° E visible
30 Jan - 08:45:27 10° SW 09:01:34 50° SSE 09:12:51 10° E daylight
30 Jan - 10:57:43 10° WSW 11:12:28 65° S 11:21:26 10° E daylight
30 Jan - 13:11:02 10° W 13:22:06 51° SSW 13:28:46 10° SE daylight
30 Jan - 15:24:41 10° W 15:29:45 18° SW 15:33:36 10° S daylight
31 Jan - 04:53:00 10° SSE 04:57:39 11° SE 05:02:14 10° ESE visible
31 Jan - 06:53:22 10° SSW 07:08:14 34° SSE 07:20:38 10° E daylight
31 Jan - 09:03:01 10° WSW 09:19:31 57° SSE 09:30:52 10° E daylight
31 Jan - 11:15:49 10° W 11:30:25 66° S 11:39:15 10° ESE daylight
31 Jan - 13:29:16 10° W 13:39:48 44° SSW 13:46:15 10° SE daylight
31 Jan - 15:44:24 10° WSW 15:47:00 12° SW 15:49:17 10° SSW daylight
01 Feb - 05:05:27 10° S 05:15:15 18° SE 05:24:43 10° ESE visible
01 Feb - 07:10:07 10° SW 07:26:03 41° SSE 07:39:03 10° E daylight
01 Feb - 09:20:46 10° WSW 09:37:31 63° S 09:48:49 10° E daylight
01 Feb - 11:33:59 10° W 11:48:21 64° S 11:57:01 10° ESE daylight
01 Feb - 13:47:36 10° W 13:57:21 36° SSW 14:03:35 10° SSE daylight
02 Feb - 05:20:26 10° S 05:32:50 24° SE 05:44:41 10° E visible
02 Feb - 07:27:14 10° SW 07:43:54 49° SSE 07:57:16 10° E daylight
02 Feb - 09:38:42 10° WSW 09:55:32 67° S 10:06:43 10° E daylight
02 Feb - 11:52:11 10° W 12:06:14 60° SSW 12:14:43 10° ESE daylight
02 Feb - 14:06:05 10° W 14:14:47 28° SW 14:20:39 10° SSE daylight
03 Feb - 05:36:23 10° SSW 05:50:27 31° SE 06:03:47 10° E visible
03 Feb - 07:44:37 10° SW 08:01:49 56° SSE 08:15:21 10° E daylight
03 Feb - 09:56:46 10° WSW 10:13:33 69° S 10:24:35 10° E daylight
03 Feb - 12:10:24 10° W 12:24:01 54° SSW 12:32:19 10° SE daylight
03 Feb - 14:24:53 10° W 14:32:06 21° SW 14:37:18 10° S daylight
04 Feb - 03:51:02 10° SSE 03:57:53 14° SE 04:04:57 10° ESE visible
04 Feb - 05:52:53 10° SSW 06:08:06 38° SSE 06:22:26 10° E visible
04 Feb - 08:02:16 10° WSW 08:19:48 62° SSE 08:33:22 10° E daylight
04 Feb - 10:14:53 10° W 10:31:33 69° S 10:42:25 10° ESE daylight
04 Feb - 12:28:42 10° W 12:41:41 47° SSW 12:49:48 10° SE daylight
04 Feb - 14:44:21 10° WSW 14:49:17 15° SW 14:53:15 10° SSW daylight
